SAS5496 ESGG-ESSA

Flight info

Callsign SAS5496
Flight time 0h 44m
Altitude 31000
Route LABAN N873 ARS T317 ELTOK
Aircraft A320/M-SDE3FGHIRWY/LB1

Departure

Time 2026-05-04 17:08
Airport Göteborg Landvetter Airport (ESGG)

Arrival

Time 2026-05-04 17:53
Airport Stockholm-Arlanda Airport (ESSA)
Time Latitude Longitude Altitude Speed Heading
2026-05-04 16:35 57.66849 12.29374 516 ft 0 kts 116°
2026-05-04 16:56 57.66851 12.29367 516 ft 2 kts 115°
2026-05-04 16:57 57.66857 12.29339 516 ft 2 kts 111°
2026-05-04 16:57 57.66864 12.29279 516 ft 2 kts 83°
2026-05-04 16:58 57.66849 12.29233 516 ft 0 kts 26°
2026-05-04 17:03 57.66852 12.29236 516 ft 2 kts 26°
2026-05-04 17:03 57.66871 12.29253 516 ft 5 kts 26°
2026-05-04 17:03 57.66959 12.29333 516 ft 8 kts 24°
2026-05-04 17:04 57.67049 12.29189 516 ft 12 kts
2026-05-04 17:04 57.67222 12.29347 516 ft 16 kts 26°
2026-05-04 17:05 57.67419 12.29444 516 ft 15 kts 304°
2026-05-04 17:05 57.67460 12.29251 515 ft 0 kts 266°
2026-05-04 17:06 57.67460 12.29248 515 ft 1 kts 266°
2026-05-04 17:06 57.67459 12.29200 515 ft 6 kts 266°
2026-05-04 17:07 57.67413 12.29008 515 ft 9 kts 208°
2026-05-04 17:07 57.67405 12.29001 515 ft 2 kts 205°
2026-05-04 17:07 57.67112 12.28735 514 ft 81 kts 205°
2026-05-04 17:07 57.66424 12.28112 511 ft 136 kts 206°
2026-05-04 17:08 57.65459 12.27272 727 ft 163 kts 210°
2026-05-04 17:08 57.63258 12.25284 1771 ft 197 kts 207°
2026-05-04 17:08 57.61827 12.25140 2457 ft 220 kts 172°
2026-05-04 17:09 57.60362 12.26064 3447 ft 224 kts 162°
2026-05-04 17:09 57.58913 12.27246 4367 ft 230 kts 160°
2026-05-04 17:09 57.57476 12.28744 4844 ft 244 kts 140°
2026-05-04 17:10 57.56749 12.35011 4990 ft 284 kts 74°
2026-05-04 17:10 57.59100 12.45252 6331 ft 292 kts 61°
2026-05-04 17:11 57.59969 12.48733 7157 ft 300 kts 62°
2026-05-04 17:11 57.60817 12.52334 7987 ft 306 kts 63°
2026-05-04 17:11 57.63021 12.59204 9634 ft 310 kts 40°
2026-05-04 17:12 57.64667 12.61765 10392 ft 308 kts 27°
2026-05-04 17:12 57.68269 12.66321 11928 ft 317 kts 27°
2026-05-04 17:13 57.73851 12.73420 14113 ft 331 kts 27°
2026-05-04 17:14 57.79637 12.80872 15926 ft 341 kts 30°
2026-05-04 17:14 57.81398 12.83961 16608 ft 350 kts 39°
2026-05-04 17:14 57.84803 12.90616 17974 ft 357 kts 39°
2026-05-04 17:15 57.86502 12.93969 18573 ft 360 kts 39°
2026-05-04 17:15 57.89988 13.00870 19742 ft 367 kts 40°
2026-05-04 17:16 57.93539 13.07905 20872 ft 374 kts 40°
2026-05-04 17:16 57.98987 13.18713 22484 ft 384 kts 40°
2026-05-04 17:17 58.00833 13.22387 23023 ft 388 kts 40°
2026-05-04 17:17 58.06438 13.33604 24429 ft 397 kts 40°
2026-05-04 17:18 58.07719 13.36176 24743 ft 399 kts 41°
2026-05-04 17:18 58.11519 13.43826 25645 ft 404 kts 41°
2026-05-04 17:19 58.15386 13.51646 26552 ft 409 kts 41°
2026-05-04 17:19 58.19307 13.59581 27469 ft 415 kts 41°
2026-05-04 17:20 58.23282 13.67630 28384 ft 420 kts 42°
2026-05-04 17:20 58.27290 13.75794 29316 ft 425 kts 42°
2026-05-04 17:20 58.29308 13.79927 29806 ft 427 kts 42°
2026-05-04 17:21 58.33391 13.88303 30487 ft 434 kts 42°
2026-05-04 17:21 58.37515 13.96792 30798 ft 437 kts 42°
2026-05-04 17:22 58.41614 14.05249 30791 ft 436 kts 42°
2026-05-04 17:23 58.49833 14.22322 30781 ft 436 kts 43°
2026-05-04 17:24 58.55992 14.35185 30792 ft 437 kts 42°
2026-05-04 17:25 58.64188 14.52423 30783 ft 439 kts 42°
2026-05-04 17:26 58.72391 14.69821 30775 ft 438 kts 43°
2026-05-04 17:27 58.82593 14.91627 30756 ft 438 kts 42°
2026-05-04 17:28 58.90759 15.09210 30747 ft 439 kts 42°
2026-05-04 17:29 59.02960 15.35755 30743 ft 441 kts 42°
2026-05-04 17:31 59.13108 15.58093 30725 ft 440 kts 43°
2026-05-04 17:31 59.18945 15.71100 30409 ft 412 kts 42°
2026-05-04 17:32 59.22647 15.79340 30170 ft 397 kts 41°
2026-05-04 17:33 59.28069 15.91414 29072 ft 390 kts 41°
2026-05-04 17:33 59.29846 15.95406 28688 ft 389 kts 41°
2026-05-04 17:34 59.35132 16.07340 27554 ft 384 kts 41°
2026-05-04 17:34 59.36853 16.11236 27197 ft 382 kts 41°
2026-05-04 17:35 59.41146 16.24492 26118 ft 387 kts 58°
2026-05-04 17:35 59.43553 16.33918 25435 ft 385 kts 58°
2026-05-04 17:35 59.44750 16.38632 25116 ft 385 kts 58°
2026-05-04 17:36 59.45946 16.43336 24731 ft 385 kts 59°
2026-05-04 17:36 59.47139 16.48039 24424 ft 383 kts 59°
2026-05-04 17:36 59.48322 16.52708 24119 ft 381 kts 59°
2026-05-04 17:36 59.49504 16.57383 23810 ft 379 kts 59°
2026-05-04 17:37 59.50667 16.61988 23510 ft 378 kts 59°
2026-05-04 17:37 59.51837 16.66623 23199 ft 377 kts 59°
2026-05-04 17:37 59.53000 16.71239 22853 ft 375 kts 59°
2026-05-04 17:37 59.54155 16.75853 22524 ft 373 kts 59°
2026-05-04 17:38 59.55296 16.80429 22215 ft 371 kts 59°
2026-05-04 17:38 59.56431 16.84995 21897 ft 369 kts 59°
2026-05-04 17:38 59.57557 16.89522 21586 ft 367 kts 59°
2026-05-04 17:38 59.58690 16.94078 21047 ft 373 kts 59°
2026-05-04 17:39 59.60991 17.03330 19974 ft 383 kts 60°
2026-05-04 17:39 59.62170 17.08087 19443 ft 387 kts 60°
2026-05-04 17:39 59.63356 17.12894 18970 ft 390 kts 60°
2026-05-04 17:40 59.64604 17.17676 18454 ft 390 kts 52°
2026-05-04 17:40 59.66172 17.22052 17949 ft 390 kts 48°
2026-05-04 17:40 59.67810 17.26333 17348 ft 391 kts 48°
2026-05-04 17:40 59.69478 17.30585 16780 ft 391 kts 47°
2026-05-04 17:41 59.71154 17.34830 16224 ft 391 kts 47°
2026-05-04 17:41 59.72833 17.39072 15668 ft 391 kts 47°
2026-05-04 17:41 59.74515 17.43303 15131 ft 390 kts 47°
2026-05-04 17:41 59.76199 17.47528 14602 ft 389 kts 47°
2026-05-04 17:42 59.77859 17.51681 14103 ft 387 kts 47°
2026-05-04 17:42 59.79534 17.55865 13593 ft 386 kts 48°
2026-05-04 17:42 59.81199 17.60016 13033 ft 383 kts 48°
2026-05-04 17:42 59.82861 17.64146 12467 ft 381 kts 48°
2026-05-04 17:43 59.84517 17.68247 11913 ft 378 kts 48°
2026-05-04 17:43 59.86164 17.72313 11394 ft 375 kts 48°
2026-05-04 17:43 59.87800 17.76328 10856 ft 372 kts 48°
2026-05-04 17:43 59.89422 17.80307 10325 ft 368 kts 48°
2026-05-04 17:44 59.91032 17.84248 9772 ft 365 kts 48°
2026-05-04 17:44 59.92626 17.88144 9225 ft 361 kts 48°
2026-05-04 17:44 59.94206 17.92010 8657 ft 357 kts 48°
2026-05-04 17:44 59.95770 17.95840 8105 ft 354 kts 48°
2026-05-04 17:45 59.97315 17.99641 7560 ft 351 kts 48°
2026-05-04 17:45 59.98768 18.03544 7010 ft 351 kts 58°
2026-05-04 17:45 59.99547 18.08152 6469 ft 352 kts 82°
2026-05-04 17:45 59.99411 18.12998 6003 ft 348 kts 105°
2026-05-04 17:46 59.98399 18.17293 5546 ft 340 kts 129°
2026-05-04 17:46 59.96691 18.20407 5114 ft 329 kts 154°
2026-05-04 17:46 59.94587 18.21873 4688 ft 315 kts 178°
2026-05-04 17:46 59.92498 18.21527 4255 ft 300 kts 202°
2026-05-04 17:47 59.90732 18.19525 3817 ft 288 kts 224°
2026-05-04 17:47 59.89274 18.16821 3380 ft 284 kts 227°
2026-05-04 17:47 59.87860 18.14075 2947 ft 282 kts 228°
2026-05-04 17:47 59.86469 18.11337 2513 ft 280 kts 228°
2026-05-04 17:48 59.85117 18.08656 2374 ft 269 kts 228°
2026-05-04 17:48 59.83813 18.06100 2247 ft 257 kts 228°
2026-05-04 17:48 59.82559 18.03650 2117 ft 247 kts 228°
2026-05-04 17:48 59.81359 18.01301 2002 ft 237 kts 228°
2026-05-04 17:49 59.80209 17.99078 1970 ft 223 kts 228°
2026-05-04 17:49 59.79118 17.97020 1976 ft 209 kts 224°
2026-05-04 17:49 59.77817 17.95897 1979 ft 205 kts 189°
2026-05-04 17:49 59.76446 17.96281 1993 ft 198 kts 171°
2026-05-04 17:50 59.75179 17.97091 1994 ft 183 kts 168°
2026-05-04 17:50 59.74057 17.97920 2103 ft 162 kts 167°
2026-05-04 17:50 59.73024 17.98653 2110 ft 153 kts 174°
2026-05-04 17:50 59.72013 17.98971 1980 ft 142 kts 191°
2026-05-04 17:51 59.71058 17.98777 1803 ft 134 kts 198°
2026-05-04 17:51 59.70155 17.98408 1614 ft 132 kts 203°
2026-05-04 17:51 59.69281 17.97928 1384 ft 131 kts 206°
2026-05-04 17:51 59.68417 17.97356 1092 ft 130 kts 203°
2026-05-04 17:52 59.67550 17.96908 797 ft 129 kts 197°
2026-05-04 17:52 59.66669 17.96611 525 ft 127 kts 195°
2026-05-04 17:52 59.65810 17.96264 367 ft 126 kts 196°
2026-05-04 17:52 59.64940 17.95934 220 ft 127 kts 194°
2026-05-04 17:53 59.64086 17.95590 145 ft 114 kts 189°
2026-05-04 17:53 59.63669 17.95450 145 ft 32 kts 190°
2026-05-04 17:53 59.63500 17.95375 144 ft 18 kts 198°
2026-05-04 17:53 59.63365 17.95237 140 ft 17 kts 216°
2026-05-04 17:54 59.63287 17.95110 139 ft 0 kts 220°
2026-05-04 17:54 59.63286 17.95109 139 ft 1 kts 220°
2026-05-04 17:55 59.63262 17.95069 138 ft 8 kts 220°
2026-05-04 17:55 59.63247 17.94945 138 ft 12 kts 294°
2026-05-04 17:55 59.63343 17.94921 138 ft 17 kts 12°
2026-05-04 17:55 59.63481 17.94973 138 ft 23 kts 10°
2026-05-04 17:56 59.63655 17.95034 138 ft 28 kts 10°
2026-05-04 17:56 59.63855 17.95106 138 ft 31 kts
2026-05-04 17:56 59.64076 17.95187 138 ft 33 kts 11°
2026-05-04 17:56 59.64298 17.95268 138 ft 32 kts 10°
2026-05-04 17:57 59.64499 17.95340 138 ft 28 kts 11°
2026-05-04 17:57 59.64700 17.95414 138 ft 26 kts 10°
2026-05-04 17:57 59.64815 17.95454 138 ft 16 kts 12°
2026-05-04 17:57 59.64938 17.95502 138 ft 20 kts 10°
2026-05-04 17:58 59.65087 17.95488 138 ft 23 kts 346°
2026-05-04 17:58 59.65226 17.95418 138 ft 19 kts 346°
2026-05-04 17:58 59.65368 17.95345 138 ft 23 kts 345°
2026-05-04 17:58 59.65534 17.95257 138 ft 26 kts 345°
2026-05-04 17:59 59.65683 17.95178 138 ft 18 kts 344°
2026-05-04 17:59 59.65765 17.95131 138 ft 13 kts 344°
2026-05-04 17:59 59.65756 17.95010 138 ft 12 kts 225°
2026-05-04 18:00 59.65726 17.94836 138 ft 13 kts 256°
2026-05-04 18:00 59.65701 17.94639 138 ft 17 kts 255°
2026-05-04 18:00 59.65668 17.94393 138 ft 20 kts 255°
2026-05-04 18:00 59.65631 17.94095 138 ft 24 kts 256°
2026-05-04 18:01 59.65594 17.93800 138 ft 23 kts 255°
2026-05-04 18:01 59.65564 17.93572 138 ft 15 kts 256°
2026-05-04 18:01 59.65542 17.93400 138 ft 6 kts 255°
2026-05-04 18:02 59.65509 17.93134 138 ft 15 kts 256°
2026-05-04 18:02 59.65489 17.92988 138 ft 5 kts 253°
2026-05-04 18:02 59.65471 17.92885 138 ft 11 kts 250°
2026-05-04 18:02 59.65434 17.92726 138 ft 14 kts 239°
2026-05-04 18:03 59.65393 17.92612 138 ft 11 kts 231°
2026-05-04 18:03 59.65320 17.92486 138 ft 17 kts 214°
2026-05-04 18:03 59.65259 17.92566 138 ft 5 kts 113°